Time,TemperatureF,DewpointF,PressureIn,WindDirection,WindDirectionDegrees,WindSpeedMPH,WindSpeedGustMPH,Humidity,HourlyPrecipIn,Conditions,Clouds,dailyrainin,SoftwareType,DateUTC
2013-05-22 00:08:00,68.8,64.0,29.71,East,91,2.0,5.0,83,0.00,,,0.00,weatherlink.com 1.10,2013-05-22 04:08:00,
2013-05-22 00:23:00,67.4,63.0,29.70,SSE,165,1.0,5.0,86,0.00,,,0.00,weatherlink.com 1.10,2013-05-22 04:23:00,
2013-05-22 00:38:00,66.6,63.0,29.71,ESE,108,1.0,5.0,87,0.00,,,0.00,weatherlink.com 1.10,2013-05-22 04:38:00,
2013-05-22 00:53:00,66.0,62.0,29.71,SSE,150,0.0,3.0,88,0.00,,,0.00,weatherlink.com 1.10,2013-05-22 04:53:00,
2013-05-22 01:09:00,65.5,62.0,29.71,ESE,114,1.0,2.0,89,0.00,,,0.00,weatherlink.com 1.10,2013-05-22 05:09:00,
2013-05-22 01:24:00,65.1,62.0,29.71,West,263,0.0,2.0,90,0.00,,,0.00,weatherlink.com 1.10,2013-05-22 05:24:00,
2013-05-22 01:39:00,65.0,62.0,29.71,South,184,0.0,1.0,90,0.00,,,0.00,weatherlink.com 1.10,2013-05-22 05:39:00,
2013-05-22 01:54:00,64.9,62.0,29.72,SE,145,0.0,2.0,91,0.00,,,0.00,weatherlink.com 1.10,2013-05-22 05:54:00,
2013-05-22 02:09:00,64.7,62.0,29.72,NNE,25,1.0,2.0,91,0.00,,,0.00,weatherlink.com 1.10,2013-05-22 06:09:00,
2013-05-22 02:24:00,64.8,62.0,29.71,East,101,1.0,4.0,90,0.00,,,0.00,weatherlink.com 1.10,2013-05-22 06:24:00,
2013-05-22 02:39:00,64.9,62.0,29.71,ESE,107,0.0,4.0,90,0.00,,,0.00,weatherlink.com 1.10,2013-05-22 06:39:00,
2013-05-22 02:54:00,64.9,62.0,29.71,East,82,0.0,4.0,90,0.00,,,0.00,weatherlink.com 1.10,2013-05-22 06:54:00,
2013-05-22 03:09:00,64.9,62.0,29.70,East,82,1.0,5.0,90,0.00,,,0.00,weatherlink.com 1.10,2013-05-22 07:09:00,
2013-05-22 03:24:00,65.0,62.0,29.70,ENE,70,1.0,6.0,90,0.00,,,0.00,weatherlink.com 1.10,2013-05-22 07:24:00,
2013-05-22 03:39:00,64.9,62.0,29.70,ESE,122,0.0,7.0,90,0.00,,,0.00,weatherlink.com 1.10,2013-05-22 07:39:00,
2013-05-22 03:54:00,64.7,62.0,29.70,SSE,148,0.0,6.0,91,0.00,,,0.00,weatherlink.com 1.10,2013-05-22 07:54:00,
2013-05-22 04:09:00,64.7,62.0,29.70,SSE,160,3.0,7.0,91,0.00,,,0.00,weatherlink.com 1.10,2013-05-22 08:09:00,
2013-05-22 04:24:00,64.6,62.0,29.68,ESE,103,0.0,5.0,91,0.00,,,0.00,weatherlink.com 1.10,2013-05-22 08:24:00,
2013-05-22 04:39:00,64.5,62.0,29.68,ENE,75,2.0,4.0,92,0.00,,,0.00,weatherlink.com 1.10,2013-05-22 08:39:00,
2013-05-22 04:54:00,64.5,62.0,29.69,South,173,1.0,4.0,92,0.00,,,0.00,weatherlink.com 1.10,2013-05-22 08:54:00,
2013-05-22 05:09:00,64.5,62.0,29.69,SSE,160,2.0,8.0,92,0.00,,,0.00,weatherlink.com 1.10,2013-05-22 09:09:00,
2013-05-22 05:24:00,64.4,62.0,29.69,ESE,114,1.0,6.0,92,0.00,,,0.00,weatherlink.com 1.10,2013-05-22 09:24:00,
2013-05-22 05:39:00,64.3,62.0,29.70,ESE,111,3.0,6.0,92,0.00,,,0.00,weatherlink.com 1.10,2013-05-22 09:39:00,
2013-05-22 05:54:00,64.4,62.0,29.70,SSE,160,1.0,6.0,92,0.00,,,0.00,weatherlink.com 1.10,2013-05-22 09:54:00,
2013-05-22 06:09:00,64.5,62.0,29.70,East,82,3.0,10.0,92,0.00,,,0.00,weatherlink.com 1.10,2013-05-22 10:09:00,
2013-05-22 06:24:00,64.1,62.0,29.70,NE,46,1.0,5.0,93,0.00,,,0.00,weatherlink.com 1.10,2013-05-22 10:24:00,
2013-05-22 06:39:00,63.9,62.0,29.70,ENE,66,2.0,5.0,94,0.00,,,0.00,weatherlink.com 1.10,2013-05-22 10:39:00,
2013-05-22 06:54:00,63.9,62.0,29.70,ESE,120,3.0,6.0,94,0.00,,,0.00,weatherlink.com 1.10,2013-05-22 10:54:00,
2013-05-22 07:09:00,63.9,62.0,29.69,East,86,3.0,5.0,94,0.00,,,0.00,weatherlink.com 1.10,2013-05-22 11:09:00,
2013-05-22 07:24:00,63.9,63.0,29.70,East,96,1.0,3.0,95,0.00,,,0.00,weatherlink.com 1.10,2013-05-22 11:24:00,
2013-05-22 07:39:00,63.9,63.0,29.71,SW,225,0.0,4.0,95,0.00,,,0.00,weatherlink.com 1.10,2013-05-22 11:39:00,
2013-05-22 07:54:00,64.0,63.0,29.70,ESE,117,1.0,5.0,95,0.00,,,0.00,weatherlink.com 1.10,2013-05-22 11:54:00,
2013-05-22 08:09:00,64.2,63.0,29.70,SE,131,2.0,8.0,95,0.00,,,0.00,weatherlink.com 1.10,2013-05-22 12:09:00,
2013-05-22 08:24:00,64.3,63.0,29.69,SE,128,2.0,5.0,95,0.00,,,0.00,weatherlink.com 1.10,2013-05-22 12:24:00,
2013-05-22 08:39:00,64.7,63.0,29.68,SSE,159,0.0,5.0,94,0.00,,,0.00,weatherlink.com 1.10,2013-05-22 12:39:00,
2013-05-22 08:54:00,65.2,64.0,29.68,SE,135,2.0,8.0,94,0.00,,,0.00,weatherlink.com 1.10,2013-05-22 12:54:00,
2013-05-22 09:09:00,65.6,63.0,29.68,SE,129,2.0,7.0,92,0.00,,,0.00,weatherlink.com 1.10,2013-05-22 13:09:00,
2013-05-22 09:24:00,66.5,64.0,29.69,East,96,2.0,6.0,90,0.00,,,0.00,weatherlink.com 1.10,2013-05-22 13:24:00,
2013-05-22 09:39:00,67.7,64.0,29.70,SE,132,2.0,6.0,88,0.00,,,0.00,weatherlink.com 1.10,2013-05-22 13:39:00,
2013-05-22 09:54:00,68.6,64.0,29.70,SSW,195,1.0,7.0,86,0.00,,,0.00,weatherlink.com 1.10,2013-05-22 13:54:00,
2013-05-22 10:09:00,69.8,64.0,29.70,WSW,243,3.0,10.0,83,0.00,,,0.00,weatherlink.com 1.10,2013-05-22 14:09:00,
2013-05-22 10:24:00,69.9,65.0,29.70,SSE,156,5.0,6.0,83,0.00,,,0.00,weatherlink.com 1.10,2013-05-22 14:24:00,
2013-05-22 10:39:00,71.1,65.0,29.70,ENE,63,5.0,6.0,80,0.00,,,0.00,weatherlink.com 1.10,2013-05-22 14:39:00,
2013-05-22 10:54:00,70.8,64.0,29.70,NNE,29,3.0,13.0,78,0.01,,,0.01,weatherlink.com 1.10,2013-05-22 14:54:00,
2013-05-22 11:09:00,71.4,64.0,29.70,ESE,122,3.0,14.0,76,0.01,,,0.01,weatherlink.com 1.10,2013-05-22 15:09:00,
2013-05-22 11:24:00,70.2,63.0,29.70,SSE,162,2.0,5.0,78,0.01,,,0.01,weatherlink.com 1.10,2013-05-22 15:24:00,
2013-05-22 11:39:00,69.8,63.0,29.70,South,188,0.0,10.0,79,0.01,,,0.01,weatherlink.com 1.10,2013-05-22 15:39:00,
2013-05-22 11:54:00,70.5,63.0,29.71,ESE,109,1.0,10.0,77,0.00,,,0.01,weatherlink.com 1.10,2013-05-22 15:54:00,
2013-05-22 12:09:00,69.1,62.0,29.71,NNW,333,1.0,8.0,79,0.00,,,0.01,weatherlink.com 1.10,2013-05-22 16:09:00,
2013-05-22 12:24:00,68.5,63.0,29.72,ESE,105,2.0,6.0,81,0.00,,,0.01,weatherlink.com 1.10,2013-05-22 16:24:00,
2013-05-22 12:39:00,68.0,62.0,29.72,ESE,108,1.0,4.0,82,0.00,,,0.01,weatherlink.com 1.10,2013-05-22 16:39:00,
2013-05-22 12:54:00,67.6,62.0,29.72,NE,56,3.0,6.0,82,0.00,,,0.01,weatherlink.com 1.10,2013-05-22 16:54:00,
2013-05-22 13:09:00,67.2,62.0,29.72,East,80,1.0,9.0,82,0.00,,,0.01,weatherlink.com 1.10,2013-05-22 17:09:00,
2013-05-22 13:24:00,66.5,62.0,29.72,NE,52,1.0,6.0,84,0.00,,,0.01,weatherlink.com 1.10,2013-05-22 17:24:00,
2013-05-22 13:39:00,66.8,62.0,29.72,East,80,1.0,8.0,84,0.00,,,0.01,weatherlink.com 1.10,2013-05-22 17:39:00,
2013-05-22 13:54:00,67.1,62.0,29.72,South,187,1.0,9.0,83,0.00,,,0.01,weatherlink.com 1.10,2013-05-22 17:54:00,
2013-05-22 14:09:00,68.1,62.0,29.72,NNE,15,2.0,7.0,80,0.00,,,0.01,weatherlink.com 1.10,2013-05-22 18:09:00,
2013-05-22 14:24:00,68.6,63.0,29.72,SSE,163,1.0,8.0,81,0.00,,,0.01,weatherlink.com 1.10,2013-05-22 18:24:00,
2013-05-22 14:39:00,69.4,63.0,29.72,South,180,3.0,8.0,80,0.00,,,0.01,weatherlink.com 1.10,2013-05-22 18:39:00,
2013-05-22 14:54:00,69.8,63.0,29.71,West,274,0.0,7.0,79,0.00,,,0.01,weatherlink.com 1.10,2013-05-22 18:54:00,
2013-05-22 15:09:00,70.3,63.0,29.71,SSE,148,0.0,6.0,77,0.00,,,0.01,weatherlink.com 1.10,2013-05-22 19:09:00,
2013-05-22 15:24:00,71.1,63.0,29.71,East,98,0.0,4.0,75,0.00,,,0.01,weatherlink.com 1.10,2013-05-22 19:24:00,
2013-05-22 15:39:00,70.8,63.0,29.70,ENE,78,1.0,6.0,75,0.00,,,0.01,weatherlink.com 1.10,2013-05-22 19:39:00,
2013-05-22 15:54:00,70.9,62.0,29.70,SSW,210,2.0,8.0,73,0.00,,,0.01,weatherlink.com 1.10,2013-05-22 19:54:00,
2013-05-22 16:09:00,72.1,63.0,29.69,NNW,330,2.0,7.0,73,0.00,,,0.01,weatherlink.com 1.10,2013-05-22 20:09:00,
2013-05-22 16:24:00,73.2,63.0,29.68,WNW,293,1.0,4.0,70,0.00,,,0.01,weatherlink.com 1.10,2013-05-22 20:24:00,
2013-05-22 16:39:00,73.6,63.0,29.67,SE,143,5.0,8.0,70,0.00,,,0.01,weatherlink.com 1.10,2013-05-22 20:39:00,
2013-05-22 16:54:00,73.8,64.0,29.67,East,87,1.0,7.0,71,0.00,,,0.01,weatherlink.com 1.10,2013-05-22 20:54:00,
2013-05-22 17:10:00,73.3,64.0,29.67,ESE,120,5.0,6.0,72,0.00,,,0.01,weatherlink.com 1.10,2013-05-22 21:10:00,
2013-05-22 17:25:00,72.9,63.0,29.67,ENE,67,2.0,9.0,72,0.00,,,0.01,weatherlink.com 1.10,2013-05-22 21:25:00,
2013-05-22 17:40:00,73.3,64.0,29.66,ENE,70,0.0,5.0,72,0.00,,,0.01,weatherlink.com 1.10,2013-05-22 21:40:00,
2013-05-22 17:55:00,73.1,64.0,29.66,East,101,1.0,3.0,72,0.00,,,0.01,weatherlink.com 1.10,2013-05-22 21:55:00,
2013-05-22 18:10:00,73.8,62.0,29.66,ESE,113,2.0,7.0,67,0.00,,,0.01,weatherlink.com 1.10,2013-05-22 22:10:00,
2013-05-22 18:25:00,74.0,63.0,29.66,East,87,2.0,7.0,69,0.00,,,0.01,weatherlink.com 1.10,2013-05-22 22:25:00,
2013-05-22 18:40:00,73.3,63.0,29.66,NNW,330,0.0,5.0,69,0.00,,,0.01,weatherlink.com 1.10,2013-05-22 22:40:00,
2013-05-22 18:55:00,72.8,62.0,29.66,NE,44,1.0,5.0,68,0.00,,,0.01,weatherlink.com 1.10,2013-05-22 22:55:00,
2013-05-22 19:10:00,72.9,62.0,29.67,North,359,1.0,5.0,68,0.00,,,0.01,weatherlink.com 1.10,2013-05-22 23:10:00,
2013-05-22 19:25:00,72.9,63.0,29.67,NW,314,0.0,2.0,70,0.00,,,0.01,weatherlink.com 1.10,2013-05-22 23:25:00,
2013-05-22 19:40:00,72.8,61.0,29.67,NW,321,1.0,8.0,66,0.00,,,0.01,weatherlink.com 1.10,2013-05-22 23:40:00,
2013-05-22 19:55:00,71.9,60.0,29.68,WNW,284,0.0,4.0,67,0.00,,,0.01,weatherlink.com 1.10,2013-05-22 23:55:00,
2013-05-22 20:10:00,71.0,60.0,29.68,SSW,201,0.0,2.0,69,0.00,,,0.01,weatherlink.com 1.10,2013-05-23 00:10:00,
2013-05-22 20:25:00,70.4,59.0,29.68,WSW,250,0.0,3.0,68,0.00,,,0.01,weatherlink.com 1.10,2013-05-23 00:25:00,
2013-05-22 20:40:00,70.1,59.0,29.69,WSW,245,0.0,4.0,68,0.00,,,0.01,weatherlink.com 1.10,2013-05-23 00:40:00,
2013-05-22 20:55:00,69.7,59.0,29.70,NNE,12,0.0,3.0,69,0.00,,,0.01,weatherlink.com 1.10,2013-05-23 00:55:00,
2013-05-22 21:10:00,68.8,59.0,29.70,ESE,104,0.0,3.0,71,0.00,,,0.01,weatherlink.com 1.10,2013-05-23 01:10:00,
2013-05-22 21:25:00,68.2,60.0,29.71,NNW,327,0.0,2.0,74,0.00,,,0.01,weatherlink.com 1.10,2013-05-23 01:25:00,
2013-05-22 21:40:00,67.3,59.0,29.71,North,360,0.0,0.0,75,0.00,,,0.01,weatherlink.com 1.10,2013-05-23 01:40:00,
2013-05-22 21:55:00,65.9,59.0,29.71,North,360,0.0,0.0,77,0.00,,,0.01,weatherlink.com 1.10,2013-05-23 01:55:00,
2013-05-22 22:10:00,64.5,58.0,29.71,North,360,0.0,0.0,79,0.00,,,0.01,weatherlink.com 1.10,2013-05-23 02:10:00,
2013-05-22 22:25:00,63.4,58.0,29.72,North,359,0.0,0.0,82,0.00,,,0.01,weatherlink.com 1.10,2013-05-23 02:25:00,
2013-05-22 22:40:00,63.7,58.0,29.72,North,360,0.0,0.0,82,0.00,,,0.01,weatherlink.com 1.10,2013-05-23 02:40:00,
2013-05-22 22:55:00,63.3,58.0,29.72,West,263,0.0,0.0,82,0.00,,,0.01,weatherlink.com 1.10,2013-05-23 02:55:00,
2013-05-22 23:10:00,63.0,58.0,29.72,SW,235,0.0,0.0,83,0.00,,,0.01,weatherlink.com 1.10,2013-05-23 03:10:00,
2013-05-22 23:25:00,62.9,58.0,29.72,SW,231,0.0,0.0,84,0.00,,,0.01,weatherlink.com 1.10,2013-05-23 03:25:00,
2013-05-22 23:40:00,62.5,58.0,29.72,SE,125,0.0,0.0,85,0.00,,,0.01,weatherlink.com 1.10,2013-05-23 03:40:00,
2013-05-22 23:55:00,62.8,58.0,29.73,NNW,348,0.0,1.0,85,0.00,,,0.01,weatherlink.com 1.10,2013-05-23 03:55:00,